MUOS-5

Last updated on Wed Sep 17 2025 00:02:49 GMT+0000 (Coordinated Universal Time)

1 41622U 16041A 25259.56241192 -.00000176 00000+0 00000+0 0 9993 2 41622 2.8152 297.9265 0201601 260.2852 255.0028 1.00271868 34349
UTC large
Height (km)
Speed (km/s)
/
Latitude / Longitude
Inclination (degrees)
Orbital Period (minutes)
Azimuth
Elevation
Range (km)
Doppler Factor

Next 0 passes for location: London (51.5072 / 0.1276)

Sorry there are no passes over London.